This demonstration page uses our WeatherBlox Daily Observations layout. Learn more.

Left ArrowRight Arrow

39.29038, -76.61219

Hourly Observations for April 19, 2022

Temp ( °F °C ) Dew Point ( °F °C ) Humidity (%) Winds ( mph kmh ) Pressure ( in mb ) Visibility ( mi km ) Precip ( " mm )
12:12 am 00:12 Cloudy with Drizzle 41 5 38 3.3 89 89 WNW 12 19 29.81 1009 5 8 0.01 0.25
12:44 am 00:44 Cloudy with Drizzle 41 5 38 3.3 89 89 NW 10 17 29.80 1009 6 10 0.01 0.25
12:54 am 00:54 Cloudy with Drizzle 41 5 38 3.3 89 89 NW 14 22 29.78 1009 6 10 0.01 0.25
1:54 am 01:54 Cloudy 41 5 38 3.3 89 89 WNW 10 17 29.76 1008 10 16 0.01 0.25
2:54 am 02:54 Mostly Cloudy 41 5 36 2.2 82 82 WNW 15 24 29.76 1008 10 16 0.00 0.00
3:54 am 03:54 Cloudy 42 5.6 36 2.2 79 79 WNW 12 19 29.78 1009 10 16 0.00 0.00
4:54 am 04:54 Cloudy 42 5.6 34 1.1 73 73 WNW 13 20 29.80 1009 10 16 0.00 0.00
5:54 am 05:54 Partly Cloudy 41 5 33 0.6 73 73 W 9 15 29.81 1010 10 16 0.00 0.00
6:54 am 06:54 Partly Cloudy 41 5 33 0.6 73 73 WSW 12 19 29.83 1010 10 16 0.00 0.00
7:54 am 07:54 Mostly Cloudy 42 5.6 35 1.7 76 76 W 10 17 29.86 1011 10 16 0.00 0.00
8:54 am 08:54 Partly Cloudy 46 7.8 34 1.1 63 63 W 14 22 29.86 1011 10 16 0.00 0.00
9:54 am 09:54 Partly Cloudy 48 8.9 30 -1.1 50 50 W 23 37 29.87 1012 10 16 0.00 0.00
10:54 am 10:54 Mostly Cloudy 48 8.9 30 -1.1 50 50 W 23 37 29.88 1012 10 16 0.00 0.00
11:54 am 11:54 Mostly Cloudy 51 10.6 28 -2.2 41 41 WNW 23 37 29.89 1012 10 16 0.00 0.00
12:54 pm 12:54 Partly Cloudy 52 11.1 30 -1.1 43 43 W 26 43 29.90 1013 10 16 0.00 0.00
1:54 pm 13:54 Mostly Cloudy 50 10 29 -1.7 44 44 W 17 28 29.93 1013 10 16 0.00 0.00
2:54 pm 14:54 Mostly Cloudy 53 11.7 26 -3.3 35 35 WSW 25 41 29.94 1014 10 16 0.00 0.00
3:54 pm 15:54 Mostly Cloudy 51 10.6 27 -2.8 39 39 W 21 33 29.96 1015 10 16 0.00 0.00
4:54 pm 16:54 Mostly Cloudy 50 10 24 -4.4 36 36 W 23 37 29.98 1015 10 16 0.00 0.00
5:54 pm 17:54 Mostly Cloudy 49 9.4 25 -3.9 39 39 W 23 37 30.01 1016 10 16 0.00 0.00
6:54 pm 18:54 Mostly Cloudy 49 9.4 26 -3.3 41 41 W 20 31 30.04 1017 10 16 0.00 0.00
7:54 pm 19:54 Mostly Cloudy 47 8.3 26 -3.3 44 44 W 17 28 30.08 1019 10 16 0.00 0.00
7:56 pm 19:56 Mostly Cloudy 47 8.3 26 -3.3 44 44 W 20 31 30.08 1019 10 16 0.00 0.00
8:07 pm 20:07 Partly Cloudy 47 8.3 27 -2.8 46 46 W 17 28 30.08 1019 10 16 0.00 0.00
8:54 pm 20:54 Mostly Cloudy 47 8.3 27 -2.8 46 46 W 17 28 30.12 1020 10 16 0.00 0.00
9:54 pm 21:54 Mostly Cloudy 46 7.8 28 -2.2 50 50 W 9 15 30.15 1021 10 16 0.00 0.00
10:54 pm 22:54 Partly Cloudy 45 7.2 28 -2.2 52 52 WSW 8 13 30.17 1022 10 16 0.00 0.00
11:54 pm 23:54 Mostly Clear 44 6.7 30 -1.1 58 58 W 13 20 30.19 1022 10 16 0.00 0.00

Powered by AerisWeather